Wind_Speed
2 2 1 1 2 2 5 8 10 11 12 14 14 13 12 11 10 9 9 8 8 9 11 12 12 12 11 10 9 8 7 6 6 6 5 5 5 5 6 7 7 8 8
2 3 3 3 2 2 4 7 9 9 11 12 14 13 12 11 11 10 9 8 7 7 8 10 12 12 11 10 9 8 7 5 5 4 4 4 4 3 3 3 4 5 5
2 3 4 5 4 4 5 8 10 11 12 13 13 13 12 11 11 11 10 8 7 6 7 9 11 11 11 11 9 7 6 6 5 4 4 3 2 1 1 1 1 0 1
3 3 4 4 4 5 7 9 11 13 13 13 13 12 12 12 12 11 10 9 8 7 8 12 14 13 12 12 10 8 6 5 6 5 4 3 3 2 1 1 1 1 3
5 5 5 6 6 7 8 9 11 12 13 13 13 12 11 12 12 12 11 9 9 10 12 16 17 14 13 12 11 10 8 6 5 5 5 4 5 4 3 3 2 2 3
6 6 6 7 8 9 9 9 10 12 13 13 13 13 13 13 14 13 12 11 12 14 16 17 16 14 13 12 11 10 10 9 8 7 6 5 6 6 6 6 5 4 4
8 7 7 8 9 10 11 10 12 13 14 15 15 16 16 16 16 16 15 16 18 19 19 18 16 15 14 13 10 10 11 12 12 10 10 8 8 7 8 8 9 8 7
6 7 7 8 10 11 13 14 15 17 18 18 19 20 20 19 19 19 20 21 22 22 21 19 17 17 15 15 13 12 12 13 14 14 13 12 13 11 10 9 9 10 11
8 9 11 13 14 16 17 18 19 20 21 21 22 23 23 21 21 21 23 24 25 24 24 22 21 21 20 19 18 17 17 17 15 15 15 15 16 16 14 12 12 11 12
12 14 17 19 20 21 22 23 24 24 25 26 26 26 26 25 24 25 26 28 28 28 28 27 25 25 25 24 24 23 22 22 19 16 14 14 17 19 18 17 16 14 13
18 19 21 22 22 23 24 26 28 29 28 28 29 31 31 31 30 30 31 32 32 33 32 31 30 29 28 28 28 27 26 25 24 22 20 18 18 20 20 20 20 19 17
23 24 25 26 27 28 28 28 30 31 30 31 31 33 34 34 33 34 34 36 36 36 35 35 35 34 32 32 32 31 29 28 27 27 26 25 25 24 22 22 23 23 21
26 28 30 31 31 32 31 31 31 32 31 31 33 34 34 34 34 35 36 36 37 37 37 38 38 37 36 36 37 35 34 33 31 31 32 30 30 29 27 25 24 24 24
28 30 32 35 36 36 35 34 33 33 33 33 34 34 34 33 33 33 34 35 36 37 37 38 39 39 38 39 39 37 37 37 37 37 36 34 34 34 32 29 27 25 25
32 33 34 36 38 39 37 36 36 36 37 37 36 35 35 33 32 31 31 32 31 31 32 31 30 27 26 25 25 26 28 30 34 39 40 38 38 38 36 34 31 29 27
36 37 37 38 40 38 37 38 39 38 39 39 38 37 35 34 33 33 31 28 27 27 26 24 22 22 22 22 23 25 26 27 27 29 34 35 35 37 38 37 36 34 31
39 39 40 41 40 37 38 40 41 39 38 37 37 35 32 31 30 30 28 25 24 24 23 22 21 21 22 23 24 25 25 26 26 25 26 27 28 29 33 37 39 40 38
41 40 41 42 38 37 40 41 41 39 37 35 34 32 30 28 27 27 26 25 24 23 23 22 22 22 22 22 23 25 25 26 27 28 28 28 29 29 30 34 38 41 43
38 41 40 40 38 38 39 41 41 38 36 34 31 29 27 26 25 26 27 26 25 24 23 22 19 19 19 21 22 24 25 25 27 29 30 30 31 33 34 34 35 39 43
40 40 39 39 38 39 40 42 40 36 34 32 29 27 25 24 23 23 24 23 22 21 20 17 16 17 19 21 23 25 25 26 26 29 31 31 30 32 35 35 35 36 39
39 40 41 39 38 40 41 41 37 34 32 29 27 25 24 23 22 21 20 17 17 17 16 16 16 17 19 21 23 24 25 26 27 29 32 32 30 30 32 33 34 33 34
36 39 41 41 40 41 41 39 36 35 32 29 26 25 24 22 21 20 18 17 17 17 16 16 16 17 20 22 24 24 23 24 27 29 31 33 32 32 31 30 32 31 31
38 39 42 43 43 42 40 39 38 37 35 32 29 27 25 24 22 20 20 20 19 19 19 18 17 18 20 23 25 25 23 23 26 28 30 32 33 33 32 30 29 30 30
40 41 43 43 42 39 38 37 35 33 31 30 28 27 26 24 22 22 22 22 22 23 23 22 20 19 20 23 25 26 26 25 24 26 30 31 33 33 32 30 27 26 27
39 40 42 36 33 33 32 33 30 28 27 27 27 26 25 24 24 24 25 26 27 28 27 25 24 22 22 23 25 26 26 26 25 25 26 30 32 32 31 29 26 24 23
37 38 36 31 30 32 32 33 31 29 27 27 29 29 28 28 27 26 27 29 31 33 33 30 27 25 24 24 25 26 26 25 24 24 24 27 30 31 30 29 27 26 25
Wind_Direction
171 185 236 316 3 1 344 337 337 337 340 346 349 352 355 0 2 3 10 17 24 25 19 12 8 8 7 9 14 13 7 3 13 31 46 57 64 74 80 79 72 74 85
229 231 246 260 271 294 308 311 313 317 323 329 331 334 338 347 351 351 356 1 7 15 16 8 0 357 356 353 355 7 9 358 350 358 18 46 56 69 90 94 84 75 77
252 250 259 260 268 284 295 301 305 309 315 319 320 321 325 332 341 341 343 347 348 355 4 359 350 342 340 339 333 338 358 2 354 339 335 358 18 36 65 103 99 62 57
237 259 275 264 266 279 289 298 306 312 317 318 317 316 320 324 330 331 332 339 338 338 343 343 340 331 324 322 320 311 324 345 349 348 333 318 301 292 293 302 332 305 270
240 252 265 271 275 284 293 300 307 313 318 319 315 312 317 320 321 320 318 327 334 331 332 335 335 331 321 311 306 300 291 299 316 327 329 318 291 282 274 271 278 297 289
263 268 275 280 286 290 295 300 305 310 317 320 316 308 310 312 311 310 308 315 325 329 331 335 339 338 336 322 301 291 285 280 284 293 302 310 306 305 289 272 267 273 276
279 281 288 295 297 297 299 303 306 310 313 314 312 308 306 303 301 302 302 307 316 323 327 332 337 338 339 338 323 301 288 282 281 282 284 288 293 300 305 292 266 263 261
294 298 309 314 313 310 307 306 307 310 311 309 307 307 306 304 299 296 298 302 308 313 317 321 325 331 332 331 325 317 307 294 285 280 279 280 282 286 293 299 288 266 254
313 313 314 312 310 308 306 303 301 299 299 298 297 297 298 299 297 293 293 295 298 301 304 307 312 315 318 317 316 314 310 307 303 291 281 277 276 279 282 286 289 283 263
312 311 311 309 307 304 301 299 297 296 295 293 290 289 287 285 285 285 286 288 289 291 294 298 302 305 306 306 307 306 304 303 304 303 294 287 279 277 276 276 279 283 279
313 316 317 316 313 310 306 302 298 297 296 293 289 286 283 281 280 280 282 283 285 288 289 289 291 291 293 295 296 296 294 294 296 296 295 291 285 283 281 278 276 276 276
313 317 318 318 316 313 307 302 297 294 293 292 289 285 282 281 280 279 280 281 283 285 285 285 287 287 286 285 285 285 285 285 286 286 289 288 284 283 282 280 277 276 272
311 315 318 318 318 316 309 303 300 297 294 293 292 289 285 282 280 278 278 278 280 282 283 284 286 285 284 281 279 277 276 276 275 276 280 282 281 279 278 276 275 274 273
306 310 314 316 318 317 313 307 303 299 296 295 294 294 293 290 284 280 279 278 279 280 281 281 280 280 281 282 280 277 273 272 271 269 271 273 274 274 271 270 271 269 269
303 307 311 312 314 315 312 308 306 303 301 298 296 295 296 294 290 286 282 281 282 283 284 285 288 291 292 295 294 286 282 284 278 266 264 265 265 267 266 261 262 264 263
301 303 306 307 310 312 309 307 307 304 300 297 294 294 294 293 294 295 293 289 289 288 289 292 292 287 286 286 287 285 283 285 286 275 269 272 269 265 262 257 256 256 257
296 299 301 302 307 307 305 305 306 304 300 297 295 293 291 289 291 292 293 291 288 286 287 289 286 284 283 283 283 283 281 281 281 278 272 272 269 265 260 256 254 253 252
291 295 297 298 301 302 304 304 304 302 298 295 294 292 290 288 289 289 288 287 288 288 289 290 290 290 290 288 285 282 280 279 279 276 271 267 263 260 259 256 255 255 251
285 290 291 293 296 300 302 302 301 297 294 294 294 293 291 288 286 284 283 284 285 284 286 289 293 298 302 301 297 292 285 278 275 274 272 268 262 260 258 254 255 258 255
282 284 286 287 293 299 301 301 298 292 290 290 291 291 290 289 287 284 283 282 280 281 282 285 293 301 308 309 307 301 293 284 274 269 269 269 266 262 260 258 256 259 257
276 280 280 285 291 296 299 300 295 288 287 287 286 285 287 288 286 285 281 273 272 273 274 283 294 303 311 318 317 309 299 290 280 270 265 265 267 266 264 262 260 260 256
270 274 280 285 290 294 297 296 292 287 286 286 282 280 279 278 278 276 268 264 264 264 270 281 294 304 314 321 324 319 305 293 284 275 268 264 265 266 267 266 264 258 252
275 276 282 286 288 290 292 293 291 290 289 288 284 281 278 276 276 272 265 264 264 262 268 277 290 304 312 318 324 326 316 298 286 279 272 266 263 264 266 268 267 260 254
286 288 290 287 283 285 290 294 293 290 289 287 284 280 273 267 271 271 269 265 266 269 273 277 281 293 306 314 320 325 324 312 295 283 275 268 262 261 263 267 269 264 259
292 291 292 287 279 280 286 293 297 298 297 293 287 282 278 274 276 279 278 273 271 274 276 279 280 285 296 306 313 319 323 321 308 294 279 268 262 258 258 261 263 262 258
294 292 297 297 289 284 288 292 293 295 294 291 288 284 282 281 280 280 282 281 278 276 277 277 278 281 287 296 304 312 319 321 313 300 287 272 262 258 257 257 257 259 258
Height
5918 5918 5918 5918 5918 5918 5919 5919 5918 5917 5915 5914 5913 5911 5911 5909 5908 5907 5906 5905 5904 5903 5902 5901 5900 5899 5898 5897 5896 5894 5893 5893 5892 5891 5891 5891 5892 5892 5892 5892 5892 5892 5892
5918 5918 5918 5918 5918 5918 5918 5918 5918 5917 5916 5915 5914 5913 5912 5911 5910 5908 5906 5905 5904 5903 5903 5903 5902 5901 5900 5899 5898 5896 5895 5894 5893 5893 5892 5892 5892 5893 5893 5893 5893 5894 5894
5918 5918 5918 5918 5917 5918 5917 5918 5918 5917 5916 5915 5914 5913 5912 5912 5911 5909 5908 5906 5905 5904 5903 5903 5903 5902 5901 5900 5899 5898 5897 5895 5895 5894 5893 5893 5893 5893 5894 5894 5894 5894 5894
5917 5918 5918 5917 5917 5917 5916 5916 5916 5916 5915 5914 5914 5913 5913 5912 5911 5910 5908 5907 5905 5904 5903 5903 5903 5902 5901 5900 5899 5898 5897 5896 5896 5895 5895 5894 5893 5893 5893 5893 5893 5893 5894
5916 5916 5916 5916 5916 5916 5915 5915 5915 5915 5914 5914 5913 5913 5912 5911 5910 5909 5908 5907 5906 5905 5904 5902 5902 5901 5900 5899 5898 5898 5897 5897 5896 5896 5895 5895 5894 5894 5893 5893 5893 5893 5893
5916 5915 5915 5915 5915 5914 5914 5914 5914 5914 5913 5913 5912 5912 5911 5910 5909 5908 5907 5906 5906 5905 5904 5902 5901 5899 5898 5897 5897 5897 5897 5896 5896 5896 5895 5895 5894 5894 5894 5893 5893 5893 5893
5916 5915 5914 5914 5914 5913 5913 5912 5912 5912 5912 5911 5911 5910 5909 5909 5908 5907 5906 5905 5904 5903 5903 5901 5900 5899 5898 5897 5896 5896 5896 5896 5896 5896 5896 5895 5894 5893 5893 5893 5893 5893 5893
5915 5914 5914 5913 5913 5912 5912 5911 5910 5910 5910 5909 5909 5908 5907 5906 5905 5905 5904 5903 5902 5901 5900 5899 5899 5898 5897 5896 5896 5895 5894 5894 5894 5894 5894 5894 5893 5893 5892 5892 5892 5892 5892
5914 5914 5913 5913 5912 5911 5910 5909 5908 5907 5906 5906 5905 5904 5903 5903 5902 5901 5900 5899 5898 5898 5897 5897 5896 5895 5895 5895 5894 5893 5892 5892 5892 5892 5892 5893 5892 5891 5891 5891 5892 5892 5891
5913 5912 5912 5911 5910 5908 5907 5906 5905 5904 5903 5902 5901 5900 5899 5899 5898 5897 5896 5895 5895 5894 5893 5893 5892 5892 5891 5891 5891 5890 5890 5888 5888 5889 5889 5890 5890 5889 5889 5890 5890 5891 5890
5910 5909 5908 5907 5906 5904 5903 5901 5900 5898 5897 5896 5895 5895 5894 5894 5893 5893 5892 5891 5890 5889 5888 5888 5888 5887 5887 5886 5885 5885 5885 5884 5883 5884 5885 5886 5886 5886 5886 5886 5887 5888 5889
5906 5905 5904 5903 5901 5900 5898 5897 5894 5892 5891 5889 5889 5888 5887 5887 5887 5887 5887 5885 5884 5884 5883 5883 5882 5881 5880 5880 5878 5878 5878 5878 5878 5878 5880 5881 5881 5881 5882 5883 5883 5884 5886
5902 5900 5899 5898 5897 5894 5892 5890 5888 5886 5885 5883 5882 5881 5880 5879 5880 5879 5879 5879 5878 5877 5876 5876 5875 5874 5873 5872 5871 5871 5871 5871 5871 5872 5873 5875 5875 5876 5877 5878 5879 5880 5881
5898 5897 5896 5893 5891 5889 5886 5883 5881 5880 5878 5876 5875 5873 5872 5872 5871 5871 5871 5871 5870 5869 5869 5869 5867 5866 5865 5864 5863 5863 5863 5864 5864 5864 5865 5867 5868 5869 5871 5872 5874 5875 5876
5893 5892 5891 5889 5886 5884 5881 5878 5875 5873 5870 5868 5867 5866 5865 5865 5864 5864 5863 5862 5861 5860 5860 5860 5859 5859 5858 5857 5855 5855 5855 5855 5853 5854 5856 5858 5859 5860 5863 5865 5867 5869 5871
5886 5885 5884 5882 5881 5878 5875 5872 5869 5867 5864 5862 5860 5859 5859 5858 5858 5857 5856 5855 5854 5853 5853 5854 5854 5853 5851 5850 5849 5848 5848 5848 5846 5845 5847 5849 5851 5852 5854 5857 5860 5862 5864
5879 5877 5876 5874 5874 5872 5869 5866 5863 5860 5858 5856 5854 5853 5853 5852 5851 5850 5849 5849 5848 5848 5847 5848 5848 5846 5845 5844 5843 5842 5841 5841 5840 5839 5840 5841 5843 5845 5846 5848 5851 5854 5856
5868 5868 5867 5866 5866 5865 5862 5859 5856 5854 5852 5850 5848 5847 5846 5845 5845 5844 5844 5843 5843 5842 5842 5842 5841 5840 5839 5838 5837 5835 5835 5834 5833 5833 5833 5834 5835 5837 5839 5840 5842 5844 5846
5853 5854 5859 5858 5858 5856 5855 5852 5849 5847 5845 5843 5842 5841 5840 5839 5839 5838 5838 5838 5838 5837 5836 5836 5835 5834 5833 5831 5830 5829 5828 5827 5827 5826 5826 5826 5828 5829 5830 5832 5834 5835 5837
5849 5848 5850 5850 5850 5848 5847 5845 5843 5841 5839 5837 5836 5835 5835 5834 5833 5833 5832 5832 5832 5831 5831 5830 5830 5829 5827 5825 5823 5821 5820 5819 5819 5819 5819 5819 5820 5821 5822 5823 5825 5826 5827
5845 5843 5843 5842 5842 5842 5840 5838 5836 5835 5833 5831 5831 5830 5829 5828 5828 5828 5828 5828 5827 5826 5826 5825 5824 5823 5821 5819 5817 5815 5813 5811 5811 5811 5811 5812 5813 5814 5814 5815 5815 5817 5817
5838 5837 5836 5836 5835 5835 5834 5832 5830 5828 5826 5825 5825 5824 5824 5824 5823 5823 5823 5823 5822 5822 5821 5820 5819 5817 5815 5812 5811 5809 5808 5806 5803 5803 5803 5805 5806 5806 5807 5808 5808 5809 5810
5831 5830 5830 5830 5828 5828 5828 5826 5824 5821 5820 5820 5820 5820 5819 5819 5818 5818 5818 5818 5817 5817 5816 5815 5814 5812 5810 5807 5804 5803 5801 5800 5797 5796 5795 5797 5798 5799 5799 5800 5801 5801 5803
5826 5825 5825 5821 5819 5821 5820 5819 5817 5815 5814 5813 5813 5813 5813 5813 5813 5813 5813 5813 5812 5812 5812 5810 5809 5807 5805 5803 5799 5796 5794 5792 5791 5790 5788 5788 5790 5791 5792 5793 5794 5795 5796
5820 5818 5816 5811 5811 5812 5812 5812 5810 5808 5807 5806 5806 5806 5807 5807 5807 5807 5807 5807 5807 5807 5806 5805 5803 5801 5799 5797 5794 5791 5788 5785 5782 5781 5781 5780 5781 5783 5784 5786 5788 5789 5790
5814 5812 5810 5806 5806 5805 5805 5804 5803 5802 5801 5800 5799 5799 5799 5800 5800 5801 5801 5801 5801 5800 5800 5798 5797 5795 5792 5790 5787 5785 5782 5779 5776 5774 5773 5773 5773 5775 5777 5779 5781 5782 5783